Weather in Krymok

Russia / Bryansk Oblast     53°06′24″N   32°56′58″E
temp.,
°C
wind,
m/s
gust,
m/s
humid.,
%
clouds,
%
prec.,
mm/h
press.,
hPa
HPBL,
m
7 may, fri
fri700:00+5wsw3384100 0.1 101138
03:00+4wsw33795 0.1 101229
06:00+4ssw33795 0.0 101246
09:00+10ssw58605 0.0 1012572
12:00+13ssw584790 0.0 10121922
15:00+13ssw6957100 0.2 10111581
18:00+12s61062100 0.3 10091260
21:00+10s61479100 1.6 1008789
8 may, sat
sat800:00+9s71492100 1.4 1006545
03:00+10s4998100 3.4 1005404
06:00+9sw2598100 1.2 1004226
09:00+11nw3487100 1.5 1004554
12:00+12nw4476100 1.4 1004811
15:00+10sw1190100 2.6 1003115
18:00+5nw101595100 6.3 1006991
21:00+4nw81593100 11.4 10101069
9 may, sun
sun900:00+4wnw71387100 0.8 1012739
03:00+3wnw71684100 0.8 1014704
06:00+2nw6149071 0.0 1017515
09:00+6nw811715 0.0 1019922
12:00+10nnw710515 0.0 10211898
15:00+11nw794467 0.0 10222427
18:00+11nw58565 0.0 10231430
21:00+6nw46755 0.0 102582
10 may, mon
mon1000:00+4nw34735 0.0 102752
03:00+4nnw33715 0.0 102823
06:00+4n22745 0.0 103016
09:00+10nne22580 0.0 1030346
12:00+14n33455 0.0 10291265
15:00+15ne34410 0.0 10281728
18:00+14ne46560 0.0 1028607
21:00+9ne34720 0.0 102846
11 may, tue
tue1100:00+7ene34750 0.0 102949
03:00+5ne37800 0.0 1029100
06:00+5ne410810 0.0 1028201
09:00+11ene610640 0.0 1027495
12:00+16ene68610 0.0 1026776
15:00+19ene67580 0.0 10241051
18:00+18e58690 0.0 1024962
21:00+15e51077100 0.0 1025344